OPS 0856 DEB, 24959

Orbit data source: Space-Track

OPS 0856 DEB, 24959 is space debris in LEO originally from a launch on Fri, 19 Aug 1966 UTC launched from the Air Force Western Test Range (AFWTR). Debris objects in space refer to the collection of defunct objects orbiting the Earth. Examples of debris include non-operational satellites, rocket bodies, and fragments generated from explosions, collisions, or faulty payload assembly.

Loading next visibility...
Identifier
24959, 1966-077R
Orbit
LEO
Country
Flag of USUS
Related business
Manufacturer
Unknown
Mission
Spacecraft
Bus & Motor
Unknown
Mass
Unknown
Launch date (UTC)
1966-08-19 (60 years ago)
Launch vehicle
Unknown
Launch site
Air Force Western Test Range (AFWTR)
Object type
Payload
Rocket body
Debris
Shape & HBR
Unknown shape, 0.1 m
Radar Cross Section
Small (<0.1 m²)

Expand to show TLE details & history
Last TLE update: 6 months ago

TLE from 6 months ago
0 OPS 0856 DEB
1 24959U 66077R   25256.22818758 -.00010441  00000-0 -89385+0 0  9990
2 24959  87.8189 169.9971 1592444 293.5426 244.7995  8.98105188154349
Epoch: 2025-09-13T05:28Z
TLE epoch observation values (Epoch: 2025-09-13T05:28:35.406Z)
Latitude
16.67257°
Longitude
-85.26615°
Altitude
4,244.923 km
Speed
5.856 km/s
True Right ascension
23h 17m 23s
True Declination
16° 36' 33"
Sunlit
Object was in full shadow at epoch
Visualization orbit readout
Latitude
Unknown
Longitude
Unknown
Altitude
Unknown
Speed
Unknown
Apparent Right ascension
Unknown
Apparent Declination
Unknown
Sunlit
N/A
Visualization observer readout
Local Sidereal Time
16:02:50
Azimuth
Unknown
Elevation
Unknown
Doppler factor
Unknown
Orbital elements
Apogee altitude
4,952.529 km
Perigee altitude
1,839.562 km
Semi-major axis
9,774.182 km
Eccentricity
0.15924
Inclination
87.8189°
RAAN
169.9971°
Arg. of periapsis
293.5426°
True anomaly
229.75432°
Mean anomaly
244.7995°
Eccentric anomaly
237.1357°
Mean motion
2.24607 °/min
Orbital period
160.28 mins
BSTAR
-0.89385
Loading maneuver chart data...
Computing Atmospheric mass density...
Loading historical data...
Loading historical data...
Loading historical data...
Loading historical data...
Loading historical data...
Loading historical data...
Loading historical data...

Documentation

Showing up to 5 results
|